[[{"header":{"parameterUnit":"m.s-1","parameterCategory":2,"la1":30.2991,"la2":30.254,"lo1":-89.0895,"lo2":-89.0444,"dy":0.0017,"dx":0.0017,"nx":28,"ny":28,"refTime":"2024-06-27T03:00:00:Z","depth":"0","parameterNumber":2,"parameterNumberName":"U-component_of_CURRENTS"},"data":[0,0,0,0,0,0,0,0,0,0,0,0,0,0,0,0,0,0,0,0,0,0,0,0,0,0,0,0,0,0,0,0,0,0,0,0,0,0,0,0,0,0,0,0,0,0,0,0,0,0,0,0,0,0,0,0,0,0,0.2576,0.2579,0,0.2771,0.2773,0.2775,0.2869,0.287,0.2871,0.2871,0.2968,0.297,0.2972,0,0,0,0,0,0,0,0,0,0,0,0,0,0.2161,0.2169,0.2576,0.2579,0.2582,0.2771,0.2773,0.2775,0.2869,0.287,0.2871,0.2871,0.2967,0.2969,0.2972,0,0,0,0,0,0,0,0,0,0,0,0,0,0.2341,0.2171,0.2575,0.2657,0.2666,0.277,0.2773,0.2776,0.2869,0.287,0.2871,0.2872,0.2966,0.2969,0.2972,0.2975,0,0,0.2982,0.2983,0,0,0,0,0,0,0,0,0.2331,0.2356,0.2642,0.2651,0.2662,0.2803,0.2663,0.284,0.2869,0.2785,0.2871,0.2872,0.2907,0.2915,0.2942,0.2979,0.2983,0.2982,0.2984,0.2985,0.2986,0,0,0,0,0,0,0,0.2319,0.2347,0.2647,0.2645,0.2658,0.2641,0.2668,0.2696,0.2832,0.2793,0.2802,0.2833,0.2911,0.2939,0.2945,0.2985,0.2982,0.2985,0.2986,0.2988,0.305,0.305,0,0,0,0,0,0,0.2315,0.2337,0.2641,0.2653,0.2503,0.2649,0.2679,0.2751,0.2834,0.2851,0.2833,0.2837,0.2933,0.2941,0.2948,0.2991,0.2985,0.2988,0.299,0.305,0.305,0.305,0,0,0,0,0,0,0.2306,0.2342,0.2633,0.2501,0.2538,0.2657,0.2736,0.2755,0.2802,0.2867,0.288,0.2864,0.2934,0.2944,0.3007,0.2994,0.2989,0.2992,0.3051,0.305,0.305,0.3052,0,0,0,0,0,0,0.2294,0.2338,0.2353,0.2503,0.2546,0.2698,0.2737,0.2758,0.2823,0.2831,0.2897,0.2907,0.2936,0.3002,0.301,0.2998,0.2995,0.3051,0.3051,0.305,0.3052,0.3052,0.3052,0,0,0,0,0,0.2279,0.2338,0.2354,0.2388,0.2577,0.27,0.2719,0.2799,0.2823,0.2843,0.2906,0.2906,0.3003,0.3006,0.3015,0.3003,0.3051,0.3051,0.305,0.3053,0.3052,0.3052,0,0,0,0,0,0,0.2193,0.2358,0.2378,0.2489,0.2574,0.2718,0.2754,0.2802,0.2868,0.2871,0.2928,0.2943,0.2985,0.2995,0.2996,0.3016,0.3016,0.3017,0.3015,0.3014,0.3014,0.2992,0.2997,0,0,0,0,0,0.2171,0.2223,0.2387,0.2447,0.2516,0.2624,0.2673,0.2727,0.2822,0.2853,0.2896,0.2937,0.2985,0.3005,0.3037,0.306,0.3092,0.3048,0.3048,0.3047,0.3034,0.3081,0.3085,0.3049,0.3049,0.3049,0,0,0.2162,0.2236,0.2278,0.2422,0.2505,0.2589,0.2657,0.2746,0.2775,0.2848,0.289,0.2943,0.2994,0.3028,0.3042,0.3038,0.3082,0.3047,0.3047,0.3033,0.3081,0.3085,0.3088,0.3048,0.3048,0.3048,0,0,0.2146,0.2241,0.2281,0.2371,0.2482,0.2546,0.2575,0.2715,0.2746,0.2807,0.2861,0.2919,0.2975,0.3015,0.3045,0.3058,0.3084,0.3049,0.3028,0.3075,0.3079,0.3082,0.3166,0.3176,0.3042,0.3042,0.3042,0,0.2097,0.2196,0.2304,0.2377,0.2439,0.2533,0.2598,0.2652,0.2763,0.2791,0.2811,0.2928,0.2968,0.3033,0.3038,0.3056,0.3099,0.3032,0.3076,0.308,0.3083,0.3168,0.318,0.3042,0.3042,0.3042,0.3042,0,0.2135,0.2212,0.2261,0.2359,0.2429,0.2504,0.2616,0.2647,0.2686,0.2744,0.2814,0.289,0.2961,0.2975,0.3018,0.3054,0.3086,0.3079,0.308,0.3087,0.3176,0.3189,0.3042,0.3042,0.3042,0.3042,0,0,0.205,0.2235,0.2255,0.2296,0.2431,0.2499,0.2544,0.2625,0.2655,0.2732,0.2784,0.2872,0.292,0.2955,0.3007,0.3043,0.3124,0.3064,0.3066,0.3153,0.326,0.3248,0.3261,0.3127,0.3128,0.3129,0.3327,0,0.2028,0.2131,0.2227,0.2306,0.2392,0.2487,0.2515,0.2587,0.2644,0.2708,0.2799,0.2875,0.2911,0.2956,0.2998,0.3092,0.3149,0.3072,0.3233,0.3239,0.3231,0.3271,0.315,0.3311,0.334,0.3342,0.3343,0,0.2046,0.2101,0.2184,0.2289,0.2337,0.2371,0.244,0.2487,0.2597,0.2652,0.2749,0.2836,0.2938,0.295,0.3115,0.3067,0.3157,0.3224,0.3234,0.3221,0.3247,0.3299,0.3333,0.3246,0.3362,0.3361,0.3359,0,0.1944,0.2079,0.2111,0.2171,0.2302,0.2319,0.2365,0.2464,0.2513,0.2634,0.2703,0.2822,0.2923,0.3018,0.3181,0.3152,0.3359,0.3341,0.3425,0.3428,0.3352,0.3345,0.3316,0.3446,0.3446,0.3445,0.3445,0,0.1909,0.1952,0.2068,0.2114,0.213,0.2249,0.2278,0.2348,0.2457,0.254,0.2674,0.2772,0.2942,0.3094,0.3193,0.3363,0.3384,0.3433,0.347,0.3353,0.3344,0.3285,0.3274,0.3453,0.3451,0.345,0.3448,0,0.1834,0.1913,0.1974,0.2079,0.2102,0.2127,0.2241,0.228,0.239,0.2507,0.256,0.2771,0.2973,0.3149,0.3349,0.3409,0.3466,0.3602,0.3476,0.3491,0.3434,0.343,0.3333,0.3254,0.3709,0.3709,0.371,0,0.1795,0.1823,0.1935,0.1964,0.2012,0.2068,0.2109,0.2228,0.2295,0.2512,0.2571,0.2811,0.2967,0.3269,0.3436,0.3631,0.3523,0.361,0.3507,0.3417,0.3442,0.3283,0.3211,0.3442,0.344,0.3439,0.3438,0,0.1724,0.1773,0.1837,0.189,0.1935,0.1996,0.2074,0.211,0.2275,0.2373,0.2534,0.2669,0.3017,0.3171,0.3449,0.3546,0.342,0.3588,0.3514,0.3241,0.3047,0.2993,0.3359,0.3426,0.3427,0.3428,0.3428,0.3429,0.166,0.169,0.1773,0.1822,0.1865,0.191,0.1927,0.2027,0.2105,0.2241,0.242,0.2574,0.2866,0.3239,0.3312,0.3398,0.3402,0.3336,0.3355,0.3212,0.3052,0.3406,0.3488,0.3489,0.349,0.3491,0.3492,0,0.1588,0.1652,0.1696,0.1754,0.1761,0.1821,0.189,0.1899,0.1947,0.2112,0.2226,0.2486,0.2679,0.2913,0.3184,0.3165,0.3004,0.3111,0.2845,0.2801,0.3146,0.3045,0.3007,0.3008,0.3008,0.3008,0.3008,0.3008,0.1555,0.1609,0.1652,0.164,0.1662,0.1652,0.167,0.1697,0.1781,0.1909,0.2047,0.2206,0.2603,0.2897,0.2976,0.2934,0.2745,0.266,0.2668,0.2909,0.2929,0.2947,0.2844,0.2765,0.2765,0.2151,0.2147,0.2145]},{"header":{"parameterUnit":"m.s-1","parameterCategory":2,"la1":30.2991,"la2":30.254,"lo1":-89.0895,"lo2":-89.0444,"dy":0.0017,"dx":0.0017,"nx":28,"ny":28,"refTime":"2024-06-27T03:00:00:Z","depth":"0","parameterNumber":3,"parameterNumberName":"V-component_of_CURRENTS"},"data":[0,0,0,0,0,0,0,0,0,0,0,0,0,0,0,0,0,0,0,0,0,0,0,0,0,0,0,0,0,0,0,0,0,0,0,0,0,0,0,0,0,0,0,0,0,0,0,0,0,0,0,0,0,0,0,0,0,0,0.018,0.0179,0,0.0167,0.0167,0.0166,0.0151,0.0151,0.015,0.015,0.002,0.0017,0.0014,0,0,0,0,0,0,0,0,0,0,0,0,0,0.0266,0.0264,0.018,0.0179,0.0179,0.0167,0.0167,0.0166,0.0151,0.0151,0.015,0.015,0.0021,0.0017,0.0014,0,0,0,0,0,0,0,0,0,0,0,0,0,0.0239,0.0264,0.018,0.0169,0.0168,0.0167,0.0167,0.0166,0.0151,0.0151,0.015,0.0149,0.0022,0.0018,0.0013,-0.0005,0,0,-0.0001,-0.0003,0,0,0,0,0,0,0,0,0.0241,0.0236,0.0171,0.017,0.0168,0.0159,0.0149,0.0103,0.0151,0.0159,0.015,0.0149,0.0055,0.0048,0.005,-0.0011,-0.0017,-0.0002,-0.0005,-0.0007,-0.0008,0,0,0,0,0,0,0,0.0243,0.0237,0.0176,0.017,0.0169,0.019,0.0185,0.0142,0.0109,0.0158,0.0157,0.0153,0.0054,0.0055,0.0046,-0.0019,-0.0002,-0.0006,-0.0009,-0.001,-0.0094,-0.0094,0,0,0,0,0,0,0.0238,0.0238,0.0176,0.0175,0.0202,0.0189,0.0183,0.0163,0.0112,0.0104,0.0154,0.0152,0.0063,0.0052,0.0042,0.0058,-0.0007,-0.0011,-0.0014,-0.0095,-0.0094,-0.0093,0,0,0,0,0,0,0.0239,0.0232,0.0177,0.0207,0.0201,0.0187,0.0165,0.0163,0.0175,0.011,0.01,0.0169,0.0062,0.0048,0.004,0.0051,-0.0013,-0.0017,-0.0095,-0.0095,-0.0094,0.0063,0,0,0,0,0,0,0.0242,0.0232,0.0233,0.0206,0.0199,0.0198,0.0166,0.0163,0.0173,0.0171,0.0119,0.0106,0.0061,0.0047,0.0035,0.0043,-0.0021,-0.0096,-0.0095,-0.0094,0.0057,0.007,0.008,0,0,0,0,0,0.0245,0.0254,0.0232,0.0226,0.0194,0.0199,0.0199,0.0189,0.0174,0.0195,0.0169,0.0108,0.0043,0.0046,0.0031,0.0037,-0.0097,-0.0095,-0.0094,0.0052,0.0067,0.008,0,0,0,0,0,0,0.0306,0.0251,0.0228,0.0222,0.0217,0.0196,0.0213,0.0201,0.0199,0.0184,0.0133,0.012,0.0112,0.0053,0.0056,0.0013,-0.0045,-0.0046,0.0071,0.0084,0.0096,0.0113,-0.0025,0,0,0,0,0,0.0313,0.0285,0.0261,0.0253,0.0256,0.0235,0.024,0.0221,0.0207,0.0206,0.0175,0.0129,0.0103,0.0081,0.0043,0.0027,-0.0015,0.0013,0.0024,0.0035,0.0037,0.0001,0.001,-0.0089,-0.0089,-0.0089,0,0,0.0338,0.0296,0.0288,0.0262,0.0253,0.0274,0.0238,0.0236,0.025,0.0187,0.0205,0.0172,0.011,0.0104,0.009,0.0057,0.0046,0.0036,0.0046,0.0042,0.0004,0.0014,0.0022,-0.0088,-0.0088,-0.0089,0,0,0.0363,0.0335,0.0327,0.0334,0.031,0.03,0.0306,0.0292,0.0288,0.0298,0.0257,0.025,0.0199,0.0176,0.0152,0.0197,0.0113,0.016,0.0226,0.0193,0.0202,0.0208,0.0199,0.0203,0.0158,0.0159,0.0159,0,0.0396,0.0375,0.0336,0.0347,0.0362,0.0321,0.035,0.0346,0.0331,0.0336,0.0316,0.0284,0.0239,0.0241,0.0259,0.0225,0.0191,0.019,0.0211,0.0217,0.0221,0.0209,0.0212,0.0166,0.0166,0.0165,0.0164,0,0.0419,0.0424,0.0432,0.0418,0.0436,0.0451,0.0442,0.0449,0.0434,0.043,0.0435,0.0396,0.0376,0.0357,0.0325,0.0328,0.0293,0.0242,0.0188,0.0241,0.0224,0.0225,0.0178,0.0175,0.0172,0.0171,0,0,0.0436,0.0443,0.0447,0.0471,0.0474,0.0492,0.0515,0.0532,0.0553,0.0539,0.0574,0.0546,0.0521,0.0492,0.0444,0.0416,0.0438,0.0346,0.034,0.0356,0.0378,0.0353,0.035,0.0385,0.0386,0.0386,0.0367,0,0.0468,0.05,0.0495,0.0561,0.0597,0.059,0.0621,0.0627,0.0627,0.0652,0.0614,0.0624,0.057,0.0564,0.0536,0.0453,0.044,0.0449,0.0305,0.0302,0.0288,0.0349,0.0347,0.0329,0.0367,0.0367,0.0367,0,0.0499,0.0513,0.0573,0.0631,0.0647,0.0683,0.0726,0.0744,0.0758,0.0759,0.0763,0.0734,0.0716,0.0652,0.0563,0.0566,0.0491,0.0427,0.0424,0.034,0.0276,0.0271,0.0327,0.0164,0.0366,0.0366,0.0366,0,0.0523,0.0582,0.0625,0.0651,0.0702,0.0731,0.0754,0.0779,0.0804,0.0827,0.086,0.0821,0.0811,0.0711,0.0596,0.0573,0.0488,0.0434,0.0351,0.0349,0.0288,0.028,0.0182,0.038,0.038,0.038,0.038,0,0.0558,0.0601,0.0645,0.0678,0.0745,0.0767,0.0832,0.0848,0.0883,0.0939,0.0916,0.0952,0.082,0.0762,0.0636,0.0506,0.052,0.0381,0.0344,0.0345,0.0342,0.0145,0.0076,0.0379,0.0379,0.0379,0.0379,0,0.0572,0.0596,0.0666,0.0732,0.0758,0.0804,0.0882,0.0928,0.0957,0.103,0.1046,0.1047,0.0976,0.0846,0.069,0.0569,0.0358,0.0385,0.0411,0.0378,0.0136,0.0077,-0.0036,-0.0086,0.0293,0.0293,0.0292,0,0.0572,0.0608,0.0703,0.0751,0.0783,0.0856,0.0905,0.0952,0.1011,0.1095,0.1137,0.1116,0.1122,0.0906,0.0683,0.048,0.0345,0.0336,0.0287,0.0138,0.0045,0.0009,-0.0027,0.0281,0.028,0.028,0.028,0,0.0584,0.062,0.068,0.0784,0.0855,0.0938,0.1019,0.1076,0.1142,0.1219,0.1303,0.1318,0.1143,0.0955,0.0682,0.052,0.0238,0.0317,0.0148,0.0023,-0.0007,-0.0078,0.0291,0.0275,0.0275,0.0276,0.0276,0.0276,0.0592,0.0644,0.0733,0.0833,0.0923,0.1024,0.1094,0.1192,0.1299,0.1422,0.1413,0.1454,0.1179,0.0817,0.0584,0.0157,0.0195,0.0022,-0.0033,-0.0053,-0.0115,0.0258,0.0201,0.0201,0.0201,0.0201,0.0201,0,0.0606,0.0674,0.0775,0.0904,0.101,0.1048,0.1178,0.1258,0.1396,0.1508,0.1579,0.1457,0.1086,0.0708,0.0179,-0.0128,-0.0232,-0.0306,-0.0372,-0.039,-0.0082,-0.01,-0.0206,-0.0205,-0.0205,-0.0205,-0.0205,-0.0205,0.0617,0.0711,0.0776,0.0953,0.1047,0.118,0.1253,0.1381,0.149,0.1648,0.1689,0.1709,0.1473,0.0405,-0.0284,-0.046,-0.0668,-0.0709,-0.0799,-0.0625,-0.06,-0.0575,-0.0612,-0.0823,-0.0824,-0.1077,-0.108,-0.1082]}],[{"header":{"parameterUnit":"m.s-1","parameterCategory":2,"la1":30.2991,"la2":30.254,"lo1":-89.0895,"lo2":-89.0444,"dy":0.0017,"dx":0.0017,"nx":28,"ny":28,"refTime":"2024-06-27T03:00:00:Z","depth":"2","parameterNumber":2,"parameterNumberName":"U-component_of_CURRENTS"},"data":[0,0,0,0,0,0,0,0,0,0,0,0,0,0,0,0,0,0,0,0,0,0,0,0,0,0,0,0,0,0,0,0,0,0,0,0,0,0,0,0,0,0,0,0,0,0,0,0,0,0,0,0,0,0,0,0,0,0,0.065,0.0648,0,0.0494,0.0493,0.0493,0.0429,0.0429,0.0428,0.0427,0.0404,0.0404,0.0404,0,0,0,0,0,0,0,0,0,0,0,0,0,0.0929,0.0925,0.065,0.0647,0.0644,0.0494,0.0493,0.0492,0.0429,0.0429,0.0428,0.0427,0.0404,0.0404,0.0404,0,0,0,0,0,0,0,0,0,0,0,0,0,0.0804,0.0923,0.0651,0.0587,0.0579,0.0495,0.0493,0.0492,0.043,0.0429,0.0428,0.0427,0.0404,0.0404,0.0404,0.0423,0,0,0.0404,0.0404,0,0,0,0,0,0,0,0,0.0811,0.0796,0.0599,0.0591,0.0582,0.0471,0.0582,0.0472,0.043,0.0498,0.0427,0.0426,0.0432,0.043,0.0416,0.0422,0.0421,0.0404,0.0404,0.0404,0.0404,0,0,0,0,0,0,0,0.082,0.0802,0.06,0.0596,0.0585,0.0577,0.0559,0.0561,0.0483,0.0492,0.0484,0.045,0.043,0.0416,0.0415,0.0421,0.0404,0.0404,0.0404,0.0404,0.045,0.0451,0,0,0,0,0,0,0.0816,0.081,0.0604,0.0594,0.0684,0.0572,0.0553,0.0516,0.048,0.0469,0.0451,0.0447,0.0417,0.0416,0.0414,0.0588,0.0404,0.0404,0.0404,0.0449,0.045,0.0452,0,0,0,0,0,0,0.0822,0.0799,0.0611,0.069,0.0664,0.0567,0.0527,0.0513,0.0611,0.0445,0.0439,0.0574,0.0416,0.0415,0.0415,0.058,0.0404,0.0404,0.0447,0.0449,0.0451,0.0837,0,0,0,0,0,0,0.0831,0.0803,0.0912,0.0689,0.0659,0.0604,0.0527,0.0511,0.0578,0.0576,0.0548,0.0536,0.0415,0.0415,0.0415,0.0577,0.0404,0.0446,0.0448,0.0451,0.0822,0.0851,0.0876,0,0,0,0,0,0.0842,0.0902,0.0918,0.0899,0.0766,0.0606,0.0594,0.0527,0.0588,0.0624,0.0565,0.0543,0.043,0.0416,0.0415,0.0582,0.0445,0.0448,0.045,0.081,0.0846,0.0876,0,0,0,0,0,0,0.1026,0.0895,0.0907,0.0921,0.0816,0.0592,0.0599,0.0631,0.0628,0.0661,0.0559,0.054,0.0576,0.0514,0.0502,0.0582,0.0439,0.0442,0.0713,0.0745,0.0772,0.0754,0.0404,0,0,0,0,0,0.1135,0.1129,0.1002,0.098,0.0946,0.084,0.0828,0.08,0.07,0.0709,0.0663,0.0617,0.0574,0.0612,0.0508,0.0616,0.0549,0.071,0.0737,0.0762,0.0735,0.0785,0.0818,0.0461,0.0461,0.0461,0,0,0.1105,0.1095,0.1047,0.1025,0.0911,0.0894,0.0828,0.0791,0.0851,0.0708,0.0777,0.0696,0.0597,0.0627,0.0654,0.0631,0.083,0.0765,0.0789,0.0746,0.0792,0.0828,0.086,0.0463,0.0463,0.0462,0,0,0.1061,0.1108,0.1118,0.1096,0.1063,0.0999,0.1044,0.0937,0.0982,0.1046,0.092,0.0935,0.0919,0.0845,0.0827,0.0965,0.0922,0.0977,0.1191,0.1246,0.1278,0.1305,0.1303,0.1327,0.1059,0.106,0.1061,0,0.1085,0.1128,0.1082,0.1136,0.113,0.1077,0.1106,0.1128,0.1065,0.11,0.1109,0.1038,0.1019,0.1032,0.1081,0.1046,0.1031,0.1108,0.1294,0.1318,0.1339,0.133,0.1351,0.1079,0.1077,0.1075,0.1073,0,0.1097,0.1158,0.1117,0.1187,0.12,0.1175,0.1187,0.1228,0.1325,0.136,0.1415,0.1338,0.1298,0.1345,0.1294,0.1424,0.1349,0.1289,0.1244,0.1401,0.1377,0.1394,0.1106,0.1099,0.1094,0.1089,0,0,0.1026,0.1118,0.1134,0.1155,0.1269,0.1196,0.132,0.137,0.1449,0.152,0.1612,0.1634,0.163,0.1594,0.1541,0.1644,0.186,0.1595,0.1589,0.1647,0.1963,0.1817,0.1817,0.1874,0.1878,0.1881,0.1903,0,0.1051,0.1196,0.1258,0.1268,0.1293,0.1304,0.1411,0.1492,0.1581,0.1649,0.1704,0.1744,0.173,0.1749,0.1862,0.1806,0.191,0.1855,0.1746,0.174,0.164,0.1834,0.1751,0.1756,0.1917,0.192,0.1921,0,0.1149,0.122,0.1336,0.134,0.1347,0.1394,0.148,0.156,0.1694,0.1769,0.1844,0.1865,0.1981,0.1959,0.2045,0.2023,0.2034,0.2016,0.2015,0.1737,0.1623,0.1606,0.1776,0.1945,0.1943,0.1941,0.194,0,0.1188,0.1258,0.1362,0.1376,0.1417,0.1453,0.1496,0.1644,0.1722,0.1834,0.1907,0.2007,0.2073,0.212,0.2164,0.2137,0.2237,0.2176,0.202,0.2007,0.1828,0.1792,0.2239,0.2239,0.2239,0.2239,0.2239,0,0.1258,0.1267,0.1381,0.1372,0.1478,0.1514,0.1621,0.1656,0.1788,0.1896,0.198,0.2018,0.2141,0.2216,0.2217,0.2184,0.2293,0.2064,0.2025,0.1955,0.1932,0.1973,0.1942,0.224,0.224,0.2239,0.2239,0,0.1248,0.1348,0.1371,0.1438,0.1487,0.1568,0.1673,0.1711,0.1848,0.1966,0.2017,0.2108,0.2209,0.2281,0.2346,0.2233,0.2205,0.215,0.2034,0.198,0.1913,0.1901,0.1975,0.197,0.1967,0.1964,0.1961,0,0.1269,0.1308,0.1408,0.1468,0.1492,0.1611,0.1689,0.1776,0.1832,0.1977,0.2019,0.2162,0.2162,0.2171,0.2128,0.2092,0.2177,0.1905,0.1818,0.1943,0.1898,0.1892,0.1885,0.1753,0.1749,0.1745,0.1743,0,0.1242,0.1308,0.132,0.145,0.1531,0.1602,0.1717,0.1767,0.1874,0.194,0.201,0.2001,0.2041,0.1944,0.1887,0.1825,0.191,0.1822,0.2059,0.1803,0.1728,0.1684,0.1687,0.1712,0.1715,0.1718,0.1719,0.172,0.1217,0.1257,0.1317,0.1425,0.1508,0.1586,0.16,0.1657,0.1712,0.1793,0.1883,0.1827,0.1802,0.1638,0.1595,0.161,0.1654,0.1572,0.1587,0.1604,0.1546,0.1465,0.1388,0.1389,0.139,0.1391,0.1391,0,0.1196,0.1236,0.1288,0.137,0.1393,0.1514,0.1583,0.1551,0.154,0.1643,0.1674,0.152,0.1382,0.1462,0.1395,0.1264,0.129,0.1265,0.1348,0.1376,0.1402,0.1337,0.1122,0.1121,0.1121,0.112,0,0,0.1184,0.1208,0.1231,0.1282,0.1336,0.1346,0.1385,0.1341,0.1377,0.1324,0.1338,0.1364,0.1376,0.1257,0.1207,0.1197,0.1291,0.1157,0.1373,0.1503,0.1529,0.157,0.1499,0,0,0,0,0]},{"header":{"parameterUnit":"m.s-1","parameterCategory":2,"la1":30.2991,"la2":30.254,"lo1":-89.0895,"lo2":-89.0444,"dy":0.0017,"dx":0.0017,"nx":28,"ny":28,"refTime":"2024-06-27T03:00:00:Z","depth":"2","parameterNumber":3,"parameterNumberName":"V-component_of_CURRENTS"},"data":[0,0,0,0,0,0,0,0,0,0,0,0,0,0,0,0,0,0,0,0,0,0,0,0,0,0,0,0,0,0,0,0,0,0,0,0,0,0,0,0,0,0,0,0,0,0,0,0,0,0,0,0,0,0,0,0,0,0,-0.0204,-0.0204,0,-0.0172,-0.0171,-0.0171,-0.0167,-0.0167,-0.0168,-0.0168,-0.0195,-0.0195,-0.0195,0,0,0,0,0,0,0,0,0,0,0,0,0,-0.0053,-0.0057,-0.0204,-0.0204,-0.0204,-0.0172,-0.0171,-0.017,-0.0166,-0.0167,-0.0168,-0.0168,-0.0194,-0.0195,-0.0195,0,0,0,0,0,0,0,0,0,0,0,0,0,-0.0077,-0.0058,-0.0204,-0.02,-0.0199,-0.0172,-0.0171,-0.017,-0.0166,-0.0167,-0.0168,-0.0169,-0.0194,-0.0195,-0.0195,-0.018,0,0,-0.0196,-0.0196,0,0,0,0,0,0,0,0,-0.0076,-0.0083,-0.0201,-0.02,-0.02,-0.0176,-0.0127,-0.0177,-0.0166,-0.0176,-0.0168,-0.0169,-0.0195,-0.0195,-0.0183,-0.0181,-0.0182,-0.0196,-0.0196,-0.0196,-0.0196,0,0,0,0,0,0,0,-0.0075,-0.0083,-0.0189,-0.02,-0.02,-0.0128,-0.0134,-0.0135,-0.018,-0.0175,-0.0176,-0.0176,-0.0195,-0.0182,-0.0184,-0.0183,-0.0196,-0.0196,-0.0196,-0.0196,-0.0229,-0.023,0,0,0,0,0,0,-0.0095,-0.0083,-0.019,-0.0188,-0.0141,-0.0131,-0.0137,-0.0181,-0.0179,-0.018,-0.0175,-0.0176,-0.0181,-0.0183,-0.0185,-0.0198,-0.0196,-0.0196,-0.0197,-0.0228,-0.0229,-0.023,0,0,0,0,0,0,-0.0093,-0.0107,-0.0191,-0.0133,-0.0139,-0.0135,-0.0182,-0.018,-0.0177,-0.0179,-0.018,-0.0176,-0.0182,-0.0184,-0.02,-0.0198,-0.0196,-0.0197,-0.0227,-0.0228,-0.0229,-0.0205,0,0,0,0,0,0,-0.0089,-0.0107,-0.0103,-0.0137,-0.0144,-0.0192,-0.0181,-0.0179,-0.0177,-0.0177,-0.018,-0.0182,-0.0183,-0.0199,-0.02,-0.0198,-0.0197,-0.0226,-0.0228,-0.0229,-0.0205,-0.0205,-0.0205,0,0,0,0,0,-0.0084,-0.0104,-0.0104,-0.0114,-0.0155,-0.0193,-0.0189,-0.0183,-0.0176,-0.0182,-0.0183,-0.0183,-0.0209,-0.02,-0.0201,-0.0199,-0.0226,-0.0227,-0.0229,-0.0205,-0.0205,-0.0205,0,0,0,0,0,0,-0.0036,-0.0107,-0.0108,-0.0147,-0.0169,-0.0194,-0.02,-0.0186,-0.0186,-0.0181,-0.0186,-0.0189,-0.0219,-0.021,-0.02,-0.0216,-0.0219,-0.0221,-0.0201,-0.0201,-0.0201,-0.0148,-0.0197,0,0,0,0,0,-0.0025,-0.0052,-0.0111,-0.0128,-0.017,-0.0179,-0.0179,-0.0171,-0.019,-0.0189,-0.0205,-0.021,-0.0222,-0.0212,-0.024,-0.0224,-0.0234,-0.0228,-0.0228,-0.0228,-0.0188,-0.0212,-0.0209,-0.0235,-0.0235,-0.0235,0,0,-0.001,-0.0042,-0.0058,-0.0114,-0.015,-0.0167,-0.0185,-0.0202,-0.0173,-0.0193,-0.0191,-0.0231,-0.023,-0.0237,-0.0244,-0.0222,-0.0237,-0.023,-0.0229,-0.0188,-0.0213,-0.021,-0.0208,-0.0236,-0.0236,-0.0236,0,0,0.0002,-0.0049,-0.0075,-0.0101,-0.0136,-0.0143,-0.0155,-0.02,-0.0196,-0.018,-0.0211,-0.0249,-0.024,-0.0257,-0.0252,-0.0265,-0.0264,-0.0271,-0.019,-0.0215,-0.0212,-0.0209,-0.0259,-0.0261,-0.0237,-0.0237,-0.0237,0,0.0032,-0.0002,-0.0078,-0.0105,-0.01,-0.0143,-0.0143,-0.0147,-0.0165,-0.0152,-0.0178,-0.0217,-0.0244,-0.0238,-0.0233,-0.0265,-0.0269,-0.0186,-0.0212,-0.0209,-0.0207,-0.0258,-0.026,-0.0236,-0.0236,-0.0236,-0.0236,0,0.0034,0.0013,-0.0024,-0.006,-0.0067,-0.0079,-0.0112,-0.0128,-0.0123,-0.0097,-0.0126,-0.0186,-0.0184,-0.0225,-0.0208,-0.021,-0.022,-0.0239,-0.0204,-0.0202,-0.0258,-0.0261,-0.0234,-0.0235,-0.0235,-0.0235,0,0,0.0062,-0.0001,-0.0005,-0.0017,-0.0032,-0.0057,-0.004,-0.0029,0.0007,-0.0039,-0.0001,-0.0064,-0.0088,-0.0086,-0.0133,-0.0145,-0.0164,-0.0143,-0.0145,-0.0177,-0.0214,-0.0248,-0.0255,-0.0164,-0.0163,-0.0163,-0.0273,0,0.0093,0.0098,0.0064,0.0065,0.0041,0.0009,0.0058,0.0078,0.0082,0.0095,0.003,0.0037,-0.0032,-0.0032,-0.0058,-0.0128,-0.016,-0.0132,-0.022,-0.0223,-0.0241,-0.0255,-0.0212,-0.0306,-0.0276,-0.0277,-0.0277,0,0.0112,0.0119,0.0153,0.014,0.0123,0.0152,0.019,0.0223,0.0249,0.0248,0.0224,0.0192,0.0154,0.0087,-0.0026,0.0013,-0.0076,-0.0156,-0.0163,-0.0188,-0.0259,-0.0296,-0.0313,-0.0282,-0.0281,-0.0281,-0.0281,0,0.018,0.0161,0.0214,0.0208,0.0206,0.0224,0.0252,0.0301,0.0343,0.0346,0.037,0.0315,0.0288,0.0179,0.0037,0.0031,-0.0094,-0.0144,-0.0287,-0.0293,-0.0269,-0.0273,-0.0234,-0.0234,-0.0234,-0.0233,-0.0233,0,0.0222,0.0226,0.0252,0.0245,0.0345,0.0317,0.0411,0.0413,0.0465,0.0542,0.0468,0.0457,0.0325,0.0239,0.009,-0.0092,-0.0063,-0.0264,-0.0311,-0.0267,-0.0269,-0.0244,-0.0243,-0.0238,-0.0237,-0.0236,-0.0235,0,0.0246,0.0271,0.0293,0.0325,0.0361,0.0434,0.0507,0.0553,0.0594,0.0671,0.0681,0.0598,0.0483,0.0318,0.0131,-0.0028,-0.0208,-0.0293,-0.0242,-0.028,-0.0411,-0.0408,-0.046,-0.0462,-0.0463,-0.0465,-0.0466,0,0.0263,0.0285,0.0357,0.0424,0.0435,0.0534,0.0611,0.0641,0.0693,0.0734,0.0768,0.0689,0.0593,0.0285,0.0053,-0.0211,-0.024,-0.037,-0.0392,-0.0386,-0.0428,-0.0423,-0.0418,-0.0379,-0.0379,-0.0379,-0.0379,0,0.0282,0.032,0.0339,0.0491,0.0572,0.0661,0.0759,0.0821,0.0871,0.0908,0.0923,0.0842,0.0572,0.0299,-0.0046,-0.0219,-0.0313,-0.0386,-0.0374,-0.0322,-0.0317,-0.0356,-0.0352,-0.0381,-0.0381,-0.0381,-0.0381,-0.0381,0.0303,0.035,0.0416,0.055,0.0667,0.0794,0.0855,0.0916,0.1002,0.1059,0.1003,0.0877,0.056,0.0102,-0.0143,-0.0336,-0.0369,-0.0472,-0.0469,-0.0465,-0.043,-0.0426,-0.0507,-0.0508,-0.0508,-0.0508,-0.0509,0,0.0339,0.0384,0.0483,0.0623,0.0745,0.0828,0.0954,0.0984,0.1061,0.1097,0.1079,0.0772,0.0417,0.014,-0.0168,-0.0433,-0.0414,-0.0474,-0.0404,-0.0402,-0.0401,-0.0359,-0.0419,-0.0419,-0.0419,-0.0419,0,0,0.0358,0.0429,0.0474,0.0684,0.0801,0.0947,0.103,0.1072,0.1111,0.1097,0.1047,0.0841,0.0465,0.0237,-0.0075,-0.0214,-0.0232,-0.023,-0.0283,-0.016,-0.0154,-0.0391,-0.0324,0,0,0,0,0]}],[{"header":{"parameterUnit":"m.s-1","parameterCategory":2,"la1":30.2991,"la2":30.254,"lo1":-89.0895,"lo2":-89.0444,"dy":0.0017,"dx":0.0017,"nx":28,"ny":28,"refTime":"2024-06-27T03:00:00:Z","depth":"4","parameterNumber":2,"parameterNumberName":"U-component_of_CURRENTS"},"data":[0,0,0,0,0,0,0,0,0,0,0,0,0,0,0,0,0,0,0,0,0,0,0,0,0,0,0,0,0,0,0,0,0,0,0,0,0,0,0,0,0,0,0,0,0,0,0,0,0,0,0,0,0,0,0,0,0,0,-0.0193,-0.0193,0,-0.0178,-0.0177,-0.0177,-0.0151,-0.0151,-0.0151,-0.0151,-0.0154,-0.0154,-0.0154,0,0,0,0,0,0,0,0,0,0,0,0,0,-0.0188,-0.0188,-0.0193,-0.0193,-0.0193,-0.0178,-0.0177,-0.0176,-0.0151,-0.0151,-0.0151,-0.0151,-0.0154,-0.0154,-0.0154,0,0,0,0,0,0,0,0,0,0,0,0,0,-0.0178,-0.0188,-0.0193,-0.0183,-0.0182,-0.0178,-0.0177,-0.0176,-0.0151,-0.0151,-0.0151,-0.0151,-0.0154,-0.0154,-0.0154,-0.0153,0,0,-0.0154,-0.0154,0,0,0,0,0,0,0,0,-0.0179,-0.0177,-0.0184,-0.0184,-0.0183,-0.0171,-0.0177,-0.0171,-0.0151,-0.0157,-0.0151,-0.0151,-0.0165,-0.0164,-0.0153,-0.0154,-0.0154,-0.0154,-0.0154,-0.0154,-0.0154,0,0,0,0,0,0,0,-0.0179,-0.0178,-0.0181,-0.0184,-0.0184,-0.0176,-0.0174,-0.0175,-0.0157,-0.0156,-0.0156,-0.0163,-0.0164,-0.0153,-0.0153,-0.0154,-0.0154,-0.0154,-0.0154,-0.0154,-0.0153,-0.0153,0,0,0,0,0,0,-0.0193,-0.0179,-0.0182,-0.0181,-0.0187,-0.0177,-0.0174,-0.017,-0.0156,-0.0156,-0.0163,-0.0162,-0.0153,-0.0153,-0.0153,-0.0148,-0.0154,-0.0154,-0.0154,-0.0153,-0.0153,-0.0153,0,0,0,0,0,0,-0.0193,-0.0193,-0.0182,-0.0185,-0.0184,-0.0177,-0.0173,-0.017,-0.0162,-0.0162,-0.0161,-0.0159,-0.0153,-0.0153,-0.0146,-0.0148,-0.0154,-0.0154,-0.0153,-0.0153,-0.0153,-0.014,0,0,0,0,0,0,-0.0192,-0.0193,-0.0192,-0.0185,-0.0184,-0.0183,-0.0173,-0.017,-0.0169,-0.0167,-0.0158,-0.0158,-0.0153,-0.0146,-0.0146,-0.0148,-0.0154,-0.0153,-0.0153,-0.0153,-0.0141,-0.014,-0.0139,0,0,0,0,0,-0.0192,-0.0191,-0.0192,-0.0193,-0.0184,-0.0183,-0.0181,-0.0173,-0.0169,-0.0165,-0.0152,-0.0159,-0.0146,-0.0145,-0.0146,-0.0148,-0.0153,-0.0153,-0.0153,-0.0141,-0.014,-0.0139,0,0,0,0,0,0,-0.0186,-0.0189,-0.0189,-0.0188,-0.019,-0.0181,-0.0178,-0.0176,-0.0161,-0.0158,-0.0153,-0.0152,-0.0148,-0.015,-0.015,-0.0148,-0.0153,-0.0153,-0.0144,-0.0143,-0.0142,-0.0134,-0.0154,0,0,0,0,0,-0.0188,-0.0195,-0.0191,-0.0197,-0.019,-0.0184,-0.0183,-0.018,-0.0171,-0.0164,-0.0157,-0.0151,-0.0147,-0.0146,-0.0142,-0.014,-0.0142,-0.0144,-0.0143,-0.0142,-0.0137,-0.0148,-0.0147,-0.0153,-0.0153,-0.0153,0,0,-0.0196,-0.0197,-0.0203,-0.0198,-0.0192,-0.0182,-0.0181,-0.018,-0.0176,-0.0169,-0.0152,-0.0147,-0.0145,-0.0138,-0.0137,-0.014,-0.0139,-0.0142,-0.0141,-0.0136,-0.0147,-0.0147,-0.0146,-0.0152,-0.0152,-0.0152,0,0,-0.0206,-0.0203,-0.0203,-0.02,-0.0198,-0.019,-0.0191,-0.0178,-0.017,-0.016,-0.0153,-0.0146,-0.0139,-0.0133,-0.0132,-0.0126,-0.0134,-0.0131,-0.012,-0.0131,-0.013,-0.013,-0.0122,-0.0121,-0.0131,-0.0131,-0.0131,0,-0.0208,-0.0207,-0.0206,-0.0197,-0.0195,-0.0192,-0.0183,-0.0175,-0.0165,-0.0153,-0.0155,-0.0133,-0.0136,-0.0125,-0.012,-0.0124,-0.0125,-0.0124,-0.0129,-0.0129,-0.0129,-0.0121,-0.012,-0.013,-0.013,-0.0131,-0.0131,0,-0.0223,-0.0209,-0.0207,-0.0195,-0.0191,-0.0187,-0.0176,-0.0167,-0.0158,-0.0145,-0.013,-0.0126,-0.0113,-0.0117,-0.0115,-0.0114,-0.0112,-0.0127,-0.0132,-0.0128,-0.0119,-0.0119,-0.0129,-0.013,-0.013,-0.013,0,0,-0.0235,-0.0219,-0.0214,-0.02,-0.0187,-0.0183,-0.0171,-0.0151,-0.0135,-0.0127,-0.0106,-0.0101,-0.0093,-0.0091,-0.0095,-0.0102,-0.0101,-0.0112,-0.0113,-0.0101,-0.011,-0.0025,-0.0016,-0.0119,-0.0119,-0.0119,-0.01,0,-0.0235,-0.0225,-0.0217,-0.0196,-0.0176,-0.0167,-0.0158,-0.0144,-0.0123,-0.01,-0.0096,-0.0079,-0.0087,-0.0081,-0.0089,-0.0101,-0.01,-0.0104,-0.0117,-0.0117,-0.0041,-0.0013,-0.012,-0.01,-0.01,-0.0099,-0.0099,0,-0.024,-0.0226,-0.0214,-0.018,-0.0171,-0.0166,-0.0139,-0.0128,-0.0098,-0.0081,-0.006,-0.0052,-0.0052,-0.0066,-0.0079,-0.0081,-0.0089,-0.0099,-0.01,-0.0023,-0.003,-0.0108,-0.0098,-0.0098,-0.0099,-0.0099,-0.0099,0,-0.0248,-0.0215,-0.0209,-0.0202,-0.0172,-0.0164,-0.015,-0.012,-0.01,-0.0065,-0.0045,-0.0039,-0.0034,-0.0055,-0.0053,-0.0076,-0.0059,-0.01,-0.0026,-0.0021,-0.0112,-0.0112,-0.0104,-0.0104,-0.0104,-0.0105,-0.0105,0,-0.0244,-0.0229,-0.0212,-0.0204,-0.0187,-0.0166,-0.0141,-0.0121,-0.0088,-0.0053,-0.0036,-0.0008,-0.0032,-0.0016,-0.0038,-0.0005,-0.0046,-0.0007,-0.0005,-0.0105,-0.0105,-0.0111,-0.0112,-0.0104,-0.0104,-0.0104,-0.0104,0,-0.0247,-0.0243,-0.0223,-0.0198,-0.019,-0.0178,-0.0141,-0.0115,-0.0085,-0.0041,-0.0032,0.0011,0.0039,0.0042,0.0027,0.0034,0.0038,0.0062,-0.001,-0.0016,0.0073,0.0072,0.0122,0.0125,0.0128,0.013,0.0132,0,-0.0245,-0.0245,-0.0227,-0.0217,-0.0203,-0.0179,-0.016,-0.0124,-0.0088,-0.0023,0.0,0.0053,0.0081,0.0147,0.013,0.0134,0.0132,0.0141,0.0077,0.0102,0.0098,0.0093,0.0088,0.0136,0.0137,0.0138,0.0139,0,-0.0237,-0.0249,-0.0238,-0.022,-0.0202,-0.0168,-0.0131,-0.0104,-0.005,-0.0036,0.0058,0.0109,0.0167,0.0187,0.0228,0.0211,0.0132,0.0169,0.0161,0.0101,0.012,0.0112,0.0104,0.0148,0.0147,0.0146,0.0145,0,-0.0235,-0.0238,-0.0238,-0.0218,-0.0193,-0.0144,-0.0126,-0.0061,-0.0022,0.0052,0.0081,0.0144,0.0172,0.0231,0.0248,0.0274,0.0245,0.0226,0.0214,0.0204,0.0226,0.0262,0.0351,0,0,0,0,0,-0.0212,-0.0236,-0.0227,-0.0196,-0.0166,-0.0142,-0.0098,-0.0075,-0.0031,0.0045,0.0073,0.0134,0.0213,0.0242,0.0281,0.026,0.0227,0.0306,0.0193,0.0201,0.019,0.0211,0,0,0,0,0,0,-0.0212,-0.0225,-0.023,-0.0178,-0.0143,-0.0095,-0.006,-0.0029,0.0024,0.0064,0.0107,0.0141,0.0206,0.0188,0.0279,0.0287,0.0223,0.0337,0.0338,0.0208,0.0198,0.0189,0.0206,0,0,0,0,0]},{"header":{"parameterUnit":"m.s-1","parameterCategory":2,"la1":30.2991,"la2":30.254,"lo1":-89.0895,"lo2":-89.0444,"dy":0.0017,"dx":0.0017,"nx":28,"ny":28,"refTime":"2024-06-27T03:00:00:Z","depth":"4","parameterNumber":3,"parameterNumberName":"V-component_of_CURRENTS"},"data":[0,0,0,0,0,0,0,0,0,0,0,0,0,0,0,0,0,0,0,0,0,0,0,0,0,0,0,0,0,0,0,0,0,0,0,0,0,0,0,0,0,0,0,0,0,0,0,0,0,0,0,0,0,0,0,0,0,0,-0.0085,-0.0085,0,-0.0108,-0.0108,-0.0108,-0.0114,-0.0114,-0.0113,-0.0113,-0.0193,-0.0195,-0.0197,0,0,0,0,0,0,0,0,0,0,0,0,0,-0.0076,-0.0076,-0.0085,-0.0085,-0.0086,-0.0108,-0.0108,-0.0108,-0.0114,-0.0114,-0.0113,-0.0113,-0.0192,-0.0194,-0.0197,0,0,0,0,0,0,0,0,0,0,0,0,0,-0.0088,-0.0076,-0.0085,-0.0091,-0.0091,-0.0108,-0.0108,-0.0108,-0.0114,-0.0114,-0.0113,-0.0113,-0.0191,-0.0194,-0.0198,-0.0224,0,0,-0.0208,-0.021,0,0,0,0,0,0,0,0,-0.0087,-0.0088,-0.009,-0.009,-0.0091,-0.0107,-0.0134,-0.015,-0.0114,-0.0106,-0.0113,-0.0113,-0.0169,-0.0174,-0.0179,-0.0228,-0.0231,-0.0208,-0.021,-0.0212,-0.0213,0,0,0,0,0,0,0,-0.0086,-0.0088,-0.0095,-0.009,-0.0091,-0.0102,-0.0103,-0.0137,-0.014,-0.0106,-0.0107,-0.0109,-0.017,-0.0176,-0.0181,-0.0233,-0.0208,-0.0211,-0.0213,-0.0215,-0.0336,-0.0337,0,0,0,0,0,0,-0.0081,-0.0087,-0.0094,-0.0095,-0.0088,-0.0102,-0.0104,-0.0103,-0.0139,-0.0143,-0.0109,-0.0109,-0.017,-0.0177,-0.0184,-0.0231,-0.0212,-0.0215,-0.0217,-0.0335,-0.0336,-0.0337,0,0,0,0,0,0,-0.0081,-0.0082,-0.0093,-0.0091,-0.0093,-0.0103,-0.0102,-0.0103,-0.0112,-0.014,-0.0145,-0.0116,-0.017,-0.0179,-0.0224,-0.0234,-0.0217,-0.022,-0.0333,-0.0335,-0.0337,-0.0317,0,0,0,0,0,0,-0.0081,-0.0082,-0.008,-0.0091,-0.0093,-0.0102,-0.0102,-0.0104,-0.0113,-0.0113,-0.0148,-0.0154,-0.017,-0.0219,-0.0227,-0.0238,-0.0222,-0.0332,-0.0334,-0.0336,-0.0316,-0.0317,-0.0319,0,0,0,0,0,-0.008,-0.0069,-0.008,-0.0081,-0.0091,-0.0102,-0.0105,-0.0111,-0.0113,-0.0117,-0.0148,-0.0153,-0.0239,-0.0223,-0.0232,-0.0244,-0.0331,-0.0334,-0.0336,-0.0315,-0.0317,-0.0319,0,0,0,0,0,0,-0.0064,-0.007,-0.0081,-0.0073,-0.0091,-0.0103,-0.0102,-0.0114,-0.0139,-0.014,-0.017,-0.018,-0.0221,-0.0242,-0.0224,-0.0288,-0.0285,-0.029,-0.0266,-0.0268,-0.027,-0.0275,-0.0225,0,0,0,0,0,-0.0062,-0.0058,-0.0073,-0.0072,-0.0076,-0.0094,-0.01,-0.0107,-0.0129,-0.0139,-0.017,-0.0205,-0.024,-0.0261,-0.0293,-0.0331,-0.0354,-0.0346,-0.0348,-0.0349,-0.0362,-0.0416,-0.0423,-0.0346,-0.0346,-0.0346,0,0,-0.0057,-0.006,-0.0059,-0.0069,-0.008,-0.009,-0.0096,-0.0102,-0.0119,-0.0146,-0.0182,-0.0212,-0.0252,-0.029,-0.0311,-0.0309,-0.0378,-0.0352,-0.0352,-0.0365,-0.0419,-0.0427,-0.0434,-0.0348,-0.0347,-0.0347,0,0,-0.0043,-0.0048,-0.004,-0.0055,-0.0069,-0.0084,-0.0087,-0.0109,-0.0123,-0.0165,-0.0187,-0.0226,-0.0282,-0.031,-0.0332,-0.0366,-0.0383,-0.0375,-0.0388,-0.044,-0.0447,-0.0453,-0.0462,-0.047,-0.0377,-0.0377,-0.0377,0,-0.004,-0.0038,-0.0043,-0.0045,-0.0062,-0.0082,-0.0092,-0.0109,-0.0148,-0.0173,-0.0175,-0.0269,-0.0292,-0.0348,-0.0356,-0.0368,-0.0391,-0.0372,-0.0441,-0.0448,-0.0454,-0.0463,-0.0471,-0.0376,-0.0376,-0.0376,-0.0376,0,-0.0026,-0.0031,-0.0029,-0.0044,-0.006,-0.0072,-0.0099,-0.0121,-0.0148,-0.0178,-0.0241,-0.0281,-0.0347,-0.0349,-0.0363,-0.0423,-0.0419,-0.0432,-0.043,-0.0461,-0.0468,-0.0477,-0.0375,-0.0375,-0.0376,-0.0376,0,0,-0.001,-0.0017,-0.0018,-0.0037,-0.0065,-0.008,-0.0105,-0.0147,-0.0176,-0.0221,-0.0275,-0.0328,-0.0366,-0.0395,-0.0419,-0.0451,-0.0497,-0.0463,-0.0466,-0.0461,-0.059,-0.0514,-0.0516,-0.0527,-0.0529,-0.0531,-0.0564,0,-0.0008,-0.0011,-0.0017,-0.0045,-0.0063,-0.0092,-0.0119,-0.0159,-0.0201,-0.0256,-0.0307,-0.0373,-0.0381,-0.0421,-0.0457,-0.0496,-0.0526,-0.0486,-0.0572,-0.0574,-0.0495,-0.0526,-0.0538,-0.0571,-0.0573,-0.0575,-0.0576,0,-0.0001,-0.001,-0.0026,-0.0066,-0.0074,-0.0093,-0.0152,-0.0178,-0.0247,-0.029,-0.0365,-0.0414,-0.0487,-0.0487,-0.0575,-0.0553,-0.058,-0.0592,-0.0595,-0.0543,-0.0516,-0.0545,-0.0592,-0.0591,-0.059,-0.0589,-0.0588,0,-0.001,-0.0024,-0.0041,-0.0056,-0.0094,-0.0112,-0.0137,-0.0194,-0.0227,-0.0327,-0.0372,-0.0468,-0.0523,-0.0585,-0.0613,-0.0617,-0.0678,-0.0693,-0.0644,-0.0637,-0.0702,-0.0696,-0.0761,-0.0761,-0.0761,-0.0761,-0.0761,0,-0.0023,-0.004,-0.0046,-0.0064,-0.0094,-0.0119,-0.016,-0.0203,-0.0265,-0.0307,-0.0402,-0.0445,-0.0555,-0.0596,-0.0629,-0.0647,-0.0704,-0.0653,-0.0652,-0.0688,-0.068,-0.0706,-0.0699,-0.0762,-0.0762,-0.0762,-0.0761,0,-0.0039,-0.0041,-0.0068,-0.0094,-0.0102,-0.0127,-0.0166,-0.0198,-0.0259,-0.0318,-0.036,-0.0451,-0.0504,-0.0564,-0.0642,-0.0655,-0.0685,-0.0674,-0.0674,-0.0671,-0.0607,-0.0599,-0.0656,-0.0654,-0.0652,-0.0651,-0.065,0,-0.005,-0.0061,-0.0082,-0.0096,-0.011,-0.0138,-0.016,-0.0207,-0.0237,-0.0299,-0.0327,-0.0395,-0.0449,-0.0494,-0.0557,-0.0616,-0.0615,-0.0641,-0.0663,-0.0609,-0.0603,-0.0597,-0.0592,-0.0647,-0.0646,-0.0646,-0.0645,0,-0.008,-0.0078,-0.0097,-0.0115,-0.0137,-0.0159,-0.0186,-0.0203,-0.0246,-0.0285,-0.031,-0.0354,-0.0392,-0.0455,-0.049,-0.053,-0.064,-0.0622,-0.0628,-0.0649,-0.0598,-0.0592,-0.0589,-0.0639,-0.064,-0.064,-0.0641,0,-0.0097,-0.0113,-0.0125,-0.014,-0.0159,-0.0181,-0.0192,-0.021,-0.0236,-0.0282,-0.0268,-0.0322,-0.0357,-0.0405,-0.043,-0.0469,-0.0494,-0.0527,-0.0538,-0.0546,-0.0497,-0.0415,-0.0408,0,0,0,0,0,-0.0123,-0.0137,-0.0151,-0.0174,-0.0183,-0.0192,-0.0212,-0.0219,-0.023,-0.0242,-0.0257,-0.028,-0.0329,-0.0352,-0.038,-0.041,-0.051,-0.0444,-0.0556,-0.0604,-0.0611,-0.0566,0,0,0,0,0,0,-0.0141,-0.0159,-0.0161,-0.0187,-0.0197,-0.0219,-0.0227,-0.0237,-0.0238,-0.0243,-0.0265,-0.0276,-0.0323,-0.0306,-0.0374,-0.0386,-0.0459,-0.0467,-0.0467,-0.06,-0.0607,-0.0612,-0.0569,0,0,0,0,0]}]]